GW3202 Weather Reports


time (UTC)temp
F
wind
direction
speed
knots
gust
knots
rain 1hr
in
rain 24hr
in
rain mn
in
humidity
%
barometer
mb
20260503012004 70 168 9.6 26.9 0.00 0.00 0.00 84 1017.2
20260503011005 71 138 12.2 26.1 0.00 0.00 0.00 82 1017.1
20260503010004 72 159 10.4 27.8 0.00 0.00 0.00 80 1016.8
20260503005003 72 155 13.0 27.8 0.00 0.00 0.00 78 1016.7
20260503004004 74 153 11.3 24.3 0.00 0.00 0.00 76 1016.7
20260503002004 75 138 11.3 21.7 0.00 0.00 0.00 71 1016.6
20260503001005 76 151 11.3 19.1 0.00 0.00 0.00 68 1016.5
20260503000003 77 145 8.7 20.9 0.00 0.00 0.00 67 1016.3
20260502235004 77 192 6.1 20.9 0.00 0.00 0.00 65 1016.2
20260502234004 78 128 8.7 21.7 0.00 0.00 0.00 64 1016.0
20260502233004 78 166 15.6 22.6 0.00 0.00 0.00 63 1015.9
20260502232005 79 156 8.7 21.7 0.00 0.00 0.00 61 1015.9
20260502231004 80 186 7.8 21.7 0.00 0.00 0.00 61 1016.0
20260502230004 81 181 13.9 21.7 0.00 0.00 0.00 58 1015.8
20260502224004 82 145 10.4 20.9 0.00 0.00 0.00 56 1016.1
20260502223004 83 138 11.3 20.0 0.00 0.00 0.00 58 1015.8
20260502221011 83 146 13.0 20.9 0.00 0.00 0.00 57 1016.0
20260502220009 83 174 13.9 20.9 0.00 0.00 0.00 56 1015.9
20260502215004 85 180 4.3 17.4 0.00 0.00 0.00 55 1015.9
20260502213005 85 206 2.6 19.1 0.00 0.00 0.00 50 1015.9
20260502212005 85 169 5.2 14.8 0.00 0.00 0.00 50 1016.2
20260502211006 85 182 5.2 15.6 0.00 0.00 0.00 50 1016.3
20260502210010 86 179 4.3 13.0 0.00 0.00 0.00 50 1016.1
20260502060004 65 84 2.6 2.6 0.00 0.00 0.00 87 1018.1
20260502055006 65 112 0.9 4.3 0.00 0.00 0.00 88 1018.2
20260502054002 65 107 1.7 4.3 0.00 0.00 0.00 89 1018.3
20260502053001 66 0 0.0 1.7 0.00 0.00 0.00 90 1018.1
20260502052001 66 23 0.0 1.7 0.00 0.00 0.00 88 1018.0
20260502051001 67 263 0.9 2.6 0.00 0.00 0.00 87 1018.1
20260502050001 68 270 1.7 1.7 0.00 0.00 0.00 86 1018.0
20260502045003 68 33 0.9 2.6 0.00 0.00 0.00 83 1018.0
20260502043002 68 109 0.9 2.6 0.00 0.00 0.00 82 1017.8
20260502041002 69 97 1.7 4.3 0.00 0.00 0.00 83 1017.6
20260502040002 68 126 1.7 4.3 0.00 0.00 0.00 85 1017.5
20260502035002 69 138 1.7 7.0 0.00 0.00 0.00 85 1017.6
20260502034002 69 117 4.3 7.0 0.00 0.00 0.00 84 1017.5
20260502031002 69 110 2.6 6.1 0.00 0.00 0.00 84 1017.1
20260502025003 69 251 2.6 7.0 0.00 0.00 0.00 84 1017.0
20260502024011 70 173 1.7 5.2 0.00 0.00 0.00 83 1016.9
20260502023006 69 0 1.7 4.3 0.00 0.00 0.00 83 1016.8
20260502022006 69 307 1.7 7.8 0.00 0.00 0.00 82 1016.5
20260502021003 70 131 1.7 13.0 0.00 0.00 0.00 80 1016.4
20260502020003 69 163 4.3 15.6 0.00 0.00 0.00 79 1016.0
20260502015006 70 131 7.0 17.4 0.00 0.00 0.00 80 1015.9
20260502014004 70 142 7.0 18.2 0.00 0.00 0.00 79 1015.9